DLH7MS EDDS-LOWW

Flight info

Callsign DLH7MS
Flight time 0h 54m
Altitude 31000
Route ABTAL4H/07 ABTAL L173 RIXED Y161 RIDAR Z98 MIQ L605 BIBAG Q104 AKIMA DCT MASUR MASUR3W
Aircraft A320/M-SDE3FGHIRWY/LB1

Departure

Time 2026-04-26 18:23
Airport Stuttgart Airport (EDDS)

Arrival

Time 2026-04-26 19:17
Airport Vienna International Airport (LOWW)
Time Latitude Longitude Altitude Speed Heading
2026-04-26 17:47 48.68860 9.19211 1316 ft 0 kts 344°
2026-04-26 18:14 48.68845 9.19218 1315 ft 4 kts 343°
2026-04-26 18:14 48.68819 9.19230 1315 ft 4 kts 339°
2026-04-26 18:14 48.68796 9.19248 1315 ft 4 kts 316°
2026-04-26 18:15 48.68786 9.19273 1315 ft 2 kts 255°
2026-04-26 18:15 48.68786 9.19274 1315 ft 1 kts 254°
2026-04-26 18:18 48.68777 9.19224 1316 ft 4 kts 254°
2026-04-26 18:18 48.68768 9.19184 1317 ft 9 kts 248°
2026-04-26 18:19 48.68721 9.19143 1318 ft 7 kts 178°
2026-04-26 18:19 48.68672 9.19163 1317 ft 8 kts 159°
2026-04-26 18:19 48.68646 9.19244 1313 ft 10 kts 82°
2026-04-26 18:19 48.68665 9.19356 1310 ft 11 kts 74°
2026-04-26 18:20 48.68690 9.19488 1306 ft 15 kts 74°
2026-04-26 18:20 48.68723 9.19666 1301 ft 20 kts 75°
2026-04-26 18:20 48.68755 9.19842 1297 ft 13 kts 73°
2026-04-26 18:20 48.68753 9.19934 1294 ft 14 kts 117°
2026-04-26 18:21 48.68698 9.19981 1290 ft 3 kts 162°
2026-04-26 18:21 48.68687 9.19986 1289 ft 3 kts 162°
2026-04-26 18:21 48.68644 9.20006 1290 ft 9 kts 162°
2026-04-26 18:21 48.68597 9.20073 1283 ft 10 kts 110°
2026-04-26 18:22 48.68609 9.20204 1280 ft 14 kts 74°
2026-04-26 18:22 48.68639 9.20357 1276 ft 17 kts 74°
2026-04-26 18:22 48.68678 9.20561 1274 ft 31 kts 74°
2026-04-26 18:22 48.68814 9.21251 1260 ft 103 kts 73°
2026-04-26 18:23 48.69063 9.22581 1227 ft 157 kts 74°
2026-04-26 18:23 48.69372 9.24247 1707 ft 166 kts 72°
2026-04-26 18:23 48.69684 9.25939 2352 ft 169 kts 71°
2026-04-26 18:23 48.70028 9.27747 2687 ft 189 kts 71°
2026-04-26 18:24 48.70421 9.29769 2944 ft 212 kts 71°
2026-04-26 18:24 48.70859 9.32002 3290 ft 232 kts 71°
2026-04-26 18:24 48.71344 9.34471 3713 ft 256 kts 72°
2026-04-26 18:24 48.71848 9.37117 4466 ft 265 kts 72°
2026-04-26 18:25 48.72352 9.39820 5345 ft 269 kts 72°
2026-04-26 18:25 48.72864 9.42570 6204 ft 273 kts 72°
2026-04-26 18:25 48.73384 9.45357 7067 ft 277 kts 72°
2026-04-26 18:25 48.73911 9.48184 7916 ft 280 kts 72°
2026-04-26 18:26 48.74445 9.51043 8753 ft 284 kts 72°
2026-04-26 18:26 48.74987 9.53941 9553 ft 288 kts 72°
2026-04-26 18:26 48.75537 9.56879 10302 ft 294 kts 72°
2026-04-26 18:26 48.76119 9.59979 10588 ft 318 kts 72°
2026-04-26 18:27 48.76737 9.63270 10851 ft 339 kts 72°
2026-04-26 18:27 48.77387 9.66760 11416 ft 347 kts 73°
2026-04-26 18:27 48.78042 9.70304 12111 ft 352 kts 73°
2026-04-26 18:27 48.78704 9.73890 12812 ft 355 kts 73°
2026-04-26 18:28 48.79375 9.77515 13494 ft 358 kts 73°
2026-04-26 18:28 48.80053 9.81174 14159 ft 362 kts 73°
2026-04-26 18:28 48.80735 9.84864 14809 ft 366 kts 73°
2026-04-26 18:28 48.81424 9.88599 15446 ft 369 kts 73°
2026-04-26 18:29 48.82116 9.92370 16060 ft 373 kts 73°
2026-04-26 18:29 48.82814 9.96176 16656 ft 376 kts 73°
2026-04-26 18:29 48.83516 10.00022 17237 ft 380 kts 73°
2026-04-26 18:29 48.84226 10.03903 17802 ft 383 kts 73°
2026-04-26 18:30 48.84913 10.07829 18354 ft 387 kts 77°
2026-04-26 18:30 48.85225 10.11905 18888 ft 392 kts 88°
2026-04-26 18:30 48.85047 10.16048 19400 ft 396 kts 96°
2026-04-26 18:30 48.84700 10.20220 19901 ft 400 kts 96°
2026-04-26 18:31 48.84406 10.24432 20398 ft 402 kts 94°
2026-04-26 18:31 48.84201 10.28676 20895 ft 405 kts 92°
2026-04-26 18:31 48.84051 10.32961 21374 ft 408 kts 91°
2026-04-26 18:31 48.83920 10.37275 21839 ft 411 kts 91°
2026-04-26 18:32 48.83783 10.41633 22316 ft 413 kts 91°
2026-04-26 18:32 48.83631 10.45982 22757 ft 416 kts 92°
2026-04-26 18:32 48.83460 10.50374 23190 ft 418 kts 92°
2026-04-26 18:32 48.83272 10.54793 23604 ft 421 kts 92°
2026-04-26 18:33 48.83077 10.59238 24012 ft 423 kts 92°
2026-04-26 18:33 48.82879 10.63706 24413 ft 426 kts 92°
2026-04-26 18:33 48.82680 10.68206 24806 ft 428 kts 92°
2026-04-26 18:33 48.82479 10.72732 25175 ft 431 kts 92°
2026-04-26 18:34 48.82275 10.77279 25527 ft 434 kts 92°
2026-04-26 18:34 48.82072 10.81857 25883 ft 436 kts 92°
2026-04-26 18:34 48.81867 10.86461 26235 ft 438 kts 92°
2026-04-26 18:34 48.81660 10.91090 26578 ft 441 kts 92°
2026-04-26 18:35 48.81449 10.95740 26917 ft 443 kts 93°
2026-04-26 18:35 48.81234 11.00413 27257 ft 445 kts 93°
2026-04-26 18:35 48.81013 11.05112 27584 ft 448 kts 93°
2026-04-26 18:35 48.80788 11.09832 27910 ft 450 kts 93°
2026-04-26 18:36 48.80561 11.14570 28234 ft 452 kts 93°
2026-04-26 18:36 48.80334 11.19333 28528 ft 454 kts 93°
2026-04-26 18:36 48.80104 11.24110 28818 ft 455 kts 93°
2026-04-26 18:36 48.79870 11.28911 29095 ft 457 kts 93°
2026-04-26 18:37 48.79634 11.33732 29370 ft 459 kts 93°
2026-04-26 18:37 48.79394 11.38564 29636 ft 461 kts 93°
2026-04-26 18:37 48.79152 11.43355 29894 ft 463 kts 93°
2026-04-26 18:37 48.78900 11.48295 30151 ft 464 kts 93°
2026-04-26 18:38 48.78652 11.53184 30414 ft 466 kts 93°
2026-04-26 18:38 48.78404 11.58075 30763 ft 465 kts 93°
2026-04-26 18:38 48.78159 11.62896 30968 ft 465 kts 93°
2026-04-26 18:38 48.77908 11.67742 31010 ft 457 kts 93°
2026-04-26 18:39 48.77402 11.77295 31009 ft 453 kts 94°
2026-04-26 18:39 48.76895 11.86806 31009 ft 453 kts 94°
2026-04-26 18:40 48.76376 11.96386 31009 ft 453 kts 94°
2026-04-26 18:40 48.75856 12.05827 31009 ft 453 kts 94°
2026-04-26 18:41 48.75321 12.15341 31008 ft 453 kts 94°
2026-04-26 18:41 48.74778 12.24853 31009 ft 453 kts 94°
2026-04-26 18:42 48.74322 12.32814 31009 ft 453 kts 94°
2026-04-26 18:42 48.73763 12.42326 31009 ft 453 kts 94°
2026-04-26 18:43 48.73202 12.51758 31009 ft 453 kts 94°
2026-04-26 18:43 48.72638 12.61251 31009 ft 453 kts 94°
2026-04-26 18:44 48.72068 12.70748 31011 ft 453 kts 94°
2026-04-26 18:44 48.71484 12.80234 31012 ft 452 kts 94°
2026-04-26 18:45 48.70889 12.89714 31012 ft 452 kts 94°
2026-04-26 18:45 48.70280 12.99188 31011 ft 452 kts 94°
2026-04-26 18:46 48.69669 13.08660 31012 ft 452 kts 94°
2026-04-26 18:46 48.69058 13.18129 31010 ft 452 kts 94°
2026-04-26 18:47 48.68442 13.27598 31006 ft 452 kts 95°
2026-04-26 18:47 48.67811 13.37067 30739 ft 453 kts 95°
2026-04-26 18:48 48.67488 13.41804 30511 ft 453 kts 95°
2026-04-26 18:48 48.67163 13.46548 30205 ft 453 kts 95°
2026-04-26 18:48 48.66837 13.51291 29879 ft 452 kts 95°
2026-04-26 18:48 48.66514 13.56006 29549 ft 450 kts 95°
2026-04-26 18:49 48.66192 13.60711 29229 ft 449 kts 95°
2026-04-26 18:49 48.65870 13.65392 28904 ft 446 kts 95°
2026-04-26 18:49 48.65546 13.70053 28578 ft 445 kts 95°
2026-04-26 18:49 48.65219 13.74693 28251 ft 443 kts 95°
2026-04-26 18:50 48.64891 13.79316 27927 ft 441 kts 95°
2026-04-26 18:50 48.64563 13.83914 27602 ft 439 kts 95°
2026-04-26 18:50 48.64235 13.88490 27276 ft 436 kts 95°
2026-04-26 18:50 48.63905 13.93039 26947 ft 434 kts 95°
2026-04-26 18:51 48.63577 13.97560 26625 ft 432 kts 95°
2026-04-26 18:51 48.63250 14.02056 26300 ft 429 kts 95°
2026-04-26 18:51 48.62921 14.06531 25975 ft 428 kts 95°
2026-04-26 18:51 48.62592 14.10992 25650 ft 426 kts 95°
2026-04-26 18:52 48.62264 14.15434 25323 ft 424 kts 95°
2026-04-26 18:52 48.61939 14.19853 24999 ft 422 kts 95°
2026-04-26 18:52 48.61613 14.24248 24673 ft 420 kts 95°
2026-04-26 18:52 48.61283 14.28619 24360 ft 418 kts 95°
2026-04-26 18:53 48.60955 14.32968 24058 ft 415 kts 95°
2026-04-26 18:53 48.60629 14.37294 23759 ft 413 kts 95°
2026-04-26 18:53 48.60301 14.41595 23458 ft 411 kts 95°
2026-04-26 18:53 48.59970 14.45877 23158 ft 410 kts 95°
2026-04-26 18:54 48.59640 14.50141 22858 ft 408 kts 95°
2026-04-26 18:54 48.59311 14.54388 22558 ft 406 kts 95°
2026-04-26 18:54 48.58983 14.58616 22257 ft 404 kts 95°
2026-04-26 18:54 48.58660 14.62772 21959 ft 403 kts 95°
2026-04-26 18:55 48.58327 14.67025 21656 ft 402 kts 95°
2026-04-26 18:55 48.58002 14.71148 21362 ft 400 kts 95°
2026-04-26 18:55 48.57674 14.75308 21059 ft 398 kts 95°
2026-04-26 18:55 48.57346 14.79447 20759 ft 396 kts 96°
2026-04-26 18:56 48.57018 14.83566 20459 ft 394 kts 96°
2026-04-26 18:56 48.56689 14.87664 20158 ft 392 kts 96°
2026-04-26 18:56 48.56359 14.91742 19857 ft 390 kts 96°
2026-04-26 18:56 48.56027 14.95798 19557 ft 388 kts 96°
2026-04-26 18:57 48.55696 14.99832 19256 ft 386 kts 96°
2026-04-26 18:57 48.55474 15.02547 19054 ft 385 kts 96°
2026-04-26 18:57 48.55034 15.07842 18656 ft 383 kts 96°
2026-04-26 18:57 48.54674 15.11817 18355 ft 381 kts 99°
2026-04-26 18:58 48.54073 15.15706 17941 ft 380 kts 103°
2026-04-26 18:58 48.53416 15.19564 17439 ft 379 kts 103°
2026-04-26 18:58 48.52741 15.23393 16938 ft 377 kts 104°
2026-04-26 18:58 48.52059 15.27199 16438 ft 375 kts 104°
2026-04-26 18:59 48.51380 15.30991 15935 ft 374 kts 104°
2026-04-26 18:59 48.50707 15.34767 15435 ft 372 kts 104°
2026-04-26 18:59 48.50040 15.38529 14940 ft 371 kts 104°
2026-04-26 18:59 48.49376 15.42275 14435 ft 369 kts 104°
2026-04-26 19:00 48.48716 15.45998 13934 ft 367 kts 104°
2026-04-26 19:00 48.48057 15.49707 13432 ft 365 kts 104°
2026-04-26 19:00 48.47400 15.53380 13063 ft 359 kts 104°
2026-04-26 19:00 48.46756 15.56969 12992 ft 353 kts 104°
2026-04-26 19:01 48.46119 15.60535 12646 ft 351 kts 104°
2026-04-26 19:01 48.45486 15.64066 12272 ft 348 kts 104°
2026-04-26 19:01 48.44858 15.67570 11903 ft 345 kts 104°
2026-04-26 19:01 48.44232 15.71052 11519 ft 343 kts 104°
2026-04-26 19:02 48.43608 15.74512 11145 ft 341 kts 104°
2026-04-26 19:02 48.42986 15.77945 10982 ft 340 kts 104°
2026-04-26 19:02 48.42360 15.81385 11008 ft 340 kts 104°
2026-04-26 19:02 48.41946 15.83658 11009 ft 341 kts 104°
2026-04-26 19:03 48.41109 15.88256 11009 ft 341 kts 104°
2026-04-26 19:03 48.40483 15.91696 11009 ft 341 kts 104°
2026-04-26 19:03 48.39856 15.95132 11009 ft 341 kts 104°
2026-04-26 19:03 48.39229 15.98568 11009 ft 341 kts 104°
2026-04-26 19:04 48.38600 16.02009 11009 ft 341 kts 104°
2026-04-26 19:04 48.37979 16.05398 11009 ft 341 kts 104°
2026-04-26 19:04 48.37348 16.08828 11009 ft 341 kts 104°
2026-04-26 19:04 48.36714 16.12261 11009 ft 341 kts 104°
2026-04-26 19:05 48.35443 16.19120 11009 ft 341 kts 104°
2026-04-26 19:05 48.34809 16.22550 11009 ft 341 kts 104°
2026-04-26 19:05 48.34175 16.25981 11009 ft 341 kts 104°
2026-04-26 19:06 48.33541 16.29415 11009 ft 341 kts 104°
2026-04-26 19:06 48.32905 16.32848 11009 ft 341 kts 104°
2026-04-26 19:06 48.32268 16.36273 11010 ft 341 kts 104°
2026-04-26 19:06 48.31627 16.39704 10708 ft 341 kts 104°
2026-04-26 19:07 48.30985 16.43112 10219 ft 336 kts 104°
2026-04-26 19:07 48.30233 16.46443 9721 ft 337 kts 112°
2026-04-26 19:07 48.29113 16.49533 9216 ft 337 kts 123°
2026-04-26 19:07 48.27665 16.52250 8712 ft 328 kts 133°
2026-04-26 19:08 48.25997 16.54479 8203 ft 315 kts 142°
2026-04-26 19:08 48.24275 16.56411 7715 ft 304 kts 142°
2026-04-26 19:08 48.22613 16.58279 7217 ft 294 kts 142°
2026-04-26 19:08 48.21003 16.60092 6715 ft 286 kts 141°
2026-04-26 19:09 48.19523 16.62054 6208 ft 282 kts 133°
2026-04-26 19:09 48.18267 16.64252 5713 ft 274 kts 125°
2026-04-26 19:09 48.17242 16.66606 5212 ft 266 kts 117°
2026-04-26 19:09 48.16417 16.69042 4711 ft 259 kts 114°
2026-04-26 19:10 48.15628 16.71438 4209 ft 254 kts 115°
2026-04-26 19:10 48.14848 16.73792 3808 ft 248 kts 115°
2026-04-26 19:10 48.14094 16.76053 3733 ft 239 kts 115°
2026-04-26 19:10 48.13350 16.78280 3743 ft 239 kts 115°
2026-04-26 19:11 48.12608 16.80507 3745 ft 239 kts 115°
2026-04-26 19:11 48.11877 16.82708 3746 ft 239 kts 115°
2026-04-26 19:11 48.11134 16.84936 3745 ft 239 kts 117°
2026-04-26 19:11 48.10065 16.86833 3549 ft 241 kts 146°
2026-04-26 19:12 48.08507 16.87626 3301 ft 238 kts 179°
2026-04-26 19:12 48.06915 16.87158 3058 ft 232 kts 202°
2026-04-26 19:12 48.05445 16.86207 2823 ft 228 kts 214°
2026-04-26 19:12 48.04381 16.84587 2738 ft 214 kts 243°
2026-04-26 19:13 48.03851 16.82545 2745 ft 209 kts 261°
2026-04-26 19:13 48.03762 16.80404 2743 ft 205 kts 278°
2026-04-26 19:13 48.04083 16.78416 2758 ft 189 kts 295°
2026-04-26 19:13 48.04642 16.76673 2756 ft 184 kts 298°
2026-04-26 19:14 48.05205 16.74965 2745 ft 183 kts 298°
2026-04-26 19:14 48.05754 16.73294 2731 ft 172 kts 298°
2026-04-26 19:14 48.06268 16.71728 2624 ft 164 kts 298°
2026-04-26 19:14 48.06434 16.71221 2562 ft 159 kts 298°
2026-04-26 19:15 48.07219 16.68830 2252 ft 151 kts 298°
2026-04-26 19:15 48.07686 16.67404 2056 ft 150 kts 298°
2026-04-26 19:15 48.08126 16.66059 1870 ft 141 kts 299°
2026-04-26 19:15 48.08553 16.64757 1690 ft 138 kts 299°
2026-04-26 19:16 48.08972 16.63475 1500 ft 137 kts 298°
2026-04-26 19:16 48.09390 16.62198 1320 ft 137 kts 298°
2026-04-26 19:16 48.09807 16.60924 1140 ft 136 kts 298°
2026-04-26 19:16 48.10221 16.59655 956 ft 136 kts 298°
2026-04-26 19:17 48.10636 16.58385 778 ft 136 kts 298°
2026-04-26 19:17 48.11048 16.57122 634 ft 130 kts 297°
2026-04-26 19:17 48.11390 16.56084 623 ft 79 kts 296°
2026-04-26 19:17 48.11551 16.55590 627 ft 40 kts 296°
2026-04-26 19:18 48.11677 16.55327 617 ft 30 kts 315°
2026-04-26 19:18 48.11814 16.55149 608 ft 22 kts 338°
2026-04-26 19:18 48.11830 16.55141 616 ft 0 kts 342°
2026-04-26 19:19 48.11860 16.55142 610 ft 8 kts 12°
2026-04-26 19:19 48.11881 16.55197 610 ft 6 kts 97°
2026-04-26 19:20 48.11859 16.55284 616 ft 15 kts 112°
2026-04-26 19:20 48.11828 16.55388 616 ft 17 kts 117°
2026-04-26 19:20 48.11764 16.55574 616 ft 12 kts 117°
2026-04-26 19:20 48.11730 16.55673 627 ft 9 kts 117°
2026-04-26 19:21 48.11703 16.55752 620 ft 8 kts 117°
2026-04-26 19:21 48.11683 16.55813 623 ft 8 kts 112°
2026-04-26 19:21 48.11638 16.55963 626 ft 20 kts 115°
2026-04-26 19:21 48.11598 16.56130 615 ft 15 kts 84°
2026-04-26 19:22 48.11680 16.56254 619 ft 19 kts 24°
2026-04-26 19:22 48.11755 16.56343 608 ft 14 kts 73°
2026-04-26 19:22 48.11736 16.56444 610 ft 4 kts 115°
2026-04-26 19:22 48.11725 16.56479 617 ft 3 kts 116°
2026-04-26 19:23 48.11717 16.56502 615 ft 4 kts 119°
2026-04-26 19:23 48.11705 16.56545 605 ft 3 kts 81°
2026-04-26 19:23 48.11726 16.56586 616 ft 6 kts 47°
2026-04-26 19:23 48.11739 16.56635 603 ft 4 kts 78°
2026-04-26 19:24 48.11738 16.56672 603 ft 3 kts 79°
2026-04-26 19:24 48.11746 16.56677 602 ft 0 kts 27°